THORAD AGENA D DEB, 5698

Orbit data source: Space-Track

THORAD AGENA D DEB, 5698 is space debris in SSO originally from a launch on Wed, 08 Apr 1970 UTC launched from the Air Force Western Test Range (AFWTR). Debris objects in space refer to the collection of defunct objects orbiting the Earth. Examples of debris include non-operational satellites, rocket bodies, and fragments generated from explosions, collisions, or faulty payload assembly.

Loading next visibility...
Identifier
5698, 1970-025MD
Orbit
SSO
Country
Flag of USUS
Related business
Manufacturer
Unknown
Mission
Spacecraft
Bus & Motor
Unknown
Mass
Unknown
Launch date (UTC)
1970-04-08 (56 years ago)
Launch vehicle
Unknown
Launch site
Air Force Western Test Range (AFWTR)
Object type
Payload
Rocket body
Debris
Shape & HBR
Unknown shape, 0.1 m
Radar Cross Section
Small (<0.1 m²)

Expand to show TLE details & history
Last TLE update: 22 hours ago

TLE from 22 hours ago
0 THORAD AGENA D DEB
1 05698U 70025MD  25352.50912528  .00000251  00000-0  39098-3 0  9991
2 05698  99.3561 203.2946 0009055   7.6595  53.4753 13.60248654565888
Epoch: 2025-12-18T12:13Z
TLE epoch observation values (Epoch: 2025-12-18T12:13:08.424Z)
Latitude
59.95434°
Longitude
-83.81626°
Altitude
1,040.92 km
Speed
7.339 km/s
True Right ascension
12h 27m 19s
True Declination
59° 48' 39"
Sunlit
Object was in daylight at epoch
Visualization orbit readout
Latitude
Unknown
Longitude
Unknown
Altitude
Unknown
Speed
Unknown
Apparent Right ascension
Unknown
Apparent Declination
Unknown
Sunlit
N/A
Visualization observer readout
Local Sidereal Time
09:21:15
Azimuth
Unknown
Elevation
Unknown
Doppler factor
Unknown
Orbital elements
Apogee altitude
1,038.769 km
Perigee altitude
1,025.349 km
Semi-major axis
7,410.196 km
Eccentricity
0.00091
Inclination
99.3561°
RAAN
203.2946°
Arg. of periapsis
7.6595°
True anomaly
53.55874°
Mean anomaly
53.4753°
Eccentric anomaly
53.51701°
Mean motion
3.4025 °/min
Orbital period
105.8 mins
BSTAR
0.00039098
Loading maneuver chart data...
Computing Atmospheric mass density...

Documentation

Showing up to 5 results
|